User: anonymous   Login
Location: Unspecified
(0.0000°N, 0.0000°E)
Time: 22:18:49
(UTC+00:00)
Language:

YUBELEINY 2 - Orbit

View from above orbital plane
View from above orbital plane
View from above satellite
View from above satellite

Ground track
Ground track

The orbit data is extracted from the following two-line orbital elements,

1 38735U 12041C   17327.55377087  .00000034  00000-0  17240-3 0  9990
2 38735  82.4782 224.8125 0017761  42.6150 317.6304 12.42575310241497
Epoch (UTC): 23 November 2017 13:17:25
Eccentricity: 0.0017761
inclination: 82.4782°
perigee height: 1482 km
apogee height: 1509 km
right ascension of ascending node: 224.8125°
argument of perigee: 42.6150°
revolutions per day: 12.42575310
mean anomaly at epoch: 317.6304°
orbit number at epoch: 24149

The dashed part of the orbit path shows where the satellite is in the earth's shadow,  

DLR